Find Starlink 3541

NORAD ID: 51854 Int'l Des: 2022-022 Owner: SPXS Country: US Constellation: starlink operational
LEOCIRCULAR

リアルタイム位置

3D地球を読み込み中...

Starlink 3541について

説明を読み込み中...

次回通過

Passes for default location (London). Set your location on the main map for personalized predictions.

高度履歴

Loading altitude history...

軌道要素

1 51854U 22022C 26127.24768352 .00018688 00000-0 95482-3 0 9998
2 51854 53.2142 111.7934 0003469 67.6508 292.4855 15.16733114231926
Epoch: May 7, 2026 • Age: 16 hours

現在のステータス

高度 516.8 km
速度 7.61 km/s
衛星直下点 31.86°N, 59.85°E
打ち上げ日 Mar 3, 2022
運用期間 4.1 years
タイプ internet

技術仕様

分類 Payload
質量 297.00 kg
乾燥質量 275.00 kg
総質量 297.00 kg
長さ 0.20 m
直径 2.80 m
スパン 9.00 m
形状 Box + pan
製造者 SPXS
バスタイプ Starlink
フェーズステータス In Orbit
所有者/国 SPXS/US

Most Searched